Akademgorodok, Russia

12:13 AM +08 on October 24, 2018 (GMT +0800)
Irkutsk | | Change Station

Elev 1683 ft 52.27 °N, 104.35 °E | Updated 13 minutes ago

Snow
Snow
32 °F
Feels Like 23 °F
N
11
Wind Variable Wind from NW

Today
High -- | Low -- °F
--% Chance of Precip.
Yesterday
High -- | Low -- °F
Precip. -- in
Pressure 29.92 in
Visibility 0.9 miles
Clouds Overcast 100 ft
Windchill 23 °F
Dew Point 32 °F
Humidity 100%
Rainfall 0.00 in
Snow Depth Not available.
7:43 AM 5:50 PM
Waxing Gibbous, 99% visible
METAR UIII 231600Z 31005MPS 1400 1200SE R30/P2000D SHSN OVC001CB 00/00 Q1013 R30/290150 NOSIG RMK QBB050 QFE715/0954
Pressure 29.92 in
Visibility 0.9 miles
Clouds Overcast 100 ft
Windchill 23 °F
Dew Point 32 °F
Humidity 100%
Rainfall 0.00 in
Snow Depth Not available.
7:43 AM 5:50 PM
Waxing Gibbous, 99% visible
METAR UIII 231600Z 31005MPS 1400 1200SE R30/P2000D SHSN OVC001CB 00/00 Q1013 R30/290150 NOSIG RMK QBB050 QFE715/0954

Get Severe Weather Alerts

Thanks for signing up!

Be on the lookout for a verification email in your inbox.

You'll start receiving the daily forecast at 6 AM.

×

10-Day Weather Forecast

×

Almanac

Astronomy

Oct. 24, 2018 Rise Set
Actual Time
Civil Twilight
Nautical Twilight
Astronomical Twilight
Moon
Length of Visible Light
Length of Day
Tomorrow will be .
, % of the Moon is Illuminated

Today's Extremes

Country Highs Country Lows

Community

WunderPhotos

Category 6

Welcome to Category 6. This is the collective home for Weather Underground's featured writeups by Dr. Jeff Masters (right), Bob Henson (left), Chris Burt, and other regular contributors.

Nearby

Air Quality

  Air Quality AQ Index Pollutant
Not available.

Snow Depth

Station Depth Elevation

Earthquake Activity

City Distance Mag. Time & Date
Minimum magnitude displayed is 2.5.

Coastal Water Temperatures

Place Temperature

Stations

Nearby Weather Stations

Station Location Temp. Windchill Dew Point Humidity Wind Precip. Elev Updated Type